Location: Unspecified
(0.0000°N, 0.0000°E)
Time: 06:25:53
(UTC+00:00)

deb r/b Ablestar - Visible Passes

Search period start: 12 July 2025 00:00
Search period end: 22 July 2025 00:00
Orbit: 878 x 1122 km, 67.4° (Epoch: 10 July)

Date Brightness Start Highest point End Pass type
(mag) Time Alt. Az. Time Alt. Az. Time Alt. Az.
12 Jul ? 19:05:14 10° S 19:11:16 40° ESE 19:17:36 10° NE visible
12 Jul ? 20:54:30 10° WSW 20:59:05 20° WNW 21:03:49 10° NNW visible
13 Jul ? 19:37:51 10° SSW 19:44:21 76° WNW 19:51:15 10° NNE visible
14 Jul ? 18:24:18 10° SSE 18:29:47 29° ESE 18:35:32 10° NE visible
14 Jul ? 20:12:04 10° SW 20:17:33 28° WNW 20:23:16 10° NNW visible
15 Jul ? 18:56:20 10° SSW 19:02:52 79° ESE 19:09:46 10° NNE visible
16 Jul ? 19:29:57 10° SW 19:36:01 39° WNW 19:42:22 10° N visible
17 Jul ? 20:06:07 10° W 20:09:17 14° WNW 20:12:32 10° NW visible
18 Jul ? 05:39:41 10° NNE 05:44:58 27° ENE 05:50:02 10° SE visible
18 Jul ? 18:48:05 10° SSW 18:54:29 55° WNW 19:01:15 10° N visible
19 Jul ? 19:23:03 10° WSW 19:27:43 20° WNW 19:32:33 10° NNW visible
20 Jul ? 04:59:06 10° NNE 05:03:24 19° ENE 05:07:34 10° ESE visible
21 Jul ? 05:30:24 10° N 05:36:37 55° ENE 05:42:29 10° SSE visible
21 Jul ? 18:40:36 10° SW 18:46:09 28° WNW 18:51:57 10° NNW visible
